Location: Unspecified
(0.0000°N, 0.0000°E)
Time: 12:45:31
(UTC+01:00)

Tiangong 1 - Visible Passes

Search period start: 09 February 2016 00:00
Search period end: 19 February 2016 00:00
Orbit: 383 x 398 km, 42.8° (Epoch: 09 February)

Date Brightness Start Highest point End Pass type
(mag) Time Alt. Az. Time Alt. Az. Time Alt. Az.
14 Feb 2.7 20:05:49 10° N 20:08:00 19° NE 20:08:00 19° NE visible
15 Feb 2.2 20:44:09 10° WNW 20:47:08 44° SW 20:47:08 44° SW visible
16 Feb 1.1 19:46:23 10° NW 19:49:33 59° NE 19:52:43 10° SE visible
17 Feb 4.2 20:26:34 10° W 20:28:32 15° SW 20:30:32 10° S visible
18 Feb 4.2 06:21:11 10° S 06:22:57 14° SE 06:24:41 10° ESE visible
